GW4725 Weather Reports


Display with metric or nautical units.
time (UTC)temp
F
wind
direction
speed
MPH
gust
MPH
rain 1hr
in
rain 24hr
in
rain mn
in
humidity
%
barometer
mb
20260509173409 64 149 0.0 2.0 0.00 0.00 0.00 62 1012.6
20260509172906 64 77 1.0 2.0 0.00 0.00 0.00 61 1012.6
20260509172403 64 252 0.0 1.0 0.00 0.00 0.00 61 1012.9
20260509171858 64 343 0.0 1.0 0.00 0.00 0.00 63 1012.7
20260509171355 63 343 0.0 1.0 0.00 0.00 0.00 64 1012.9
20260509170851 63 16 0.0 0.0 0.00 0.00 0.00 65 1012.8
20260509170348 62 78 0.0 0.0 0.00 0.00 0.00 63 1013.2
20260509165848 62 80 0.0 1.0 0.00 0.00 0.00 63 1013.5
20260509165342 63 57 0.0 0.0 0.00 0.00 0.00 63 1013.3
20260509164838 62 264 0.0 0.0 0.00 0.00 0.00 63 1013.3
20260509164335 62 130 0.0 1.0 0.00 0.00 0.00 63 1013.4
20260509163831 62 303 0.0 1.0 0.00 0.00 0.00 64 1013.0
20260509163328 62 91 0.0 2.0 0.00 0.00 0.00 64 1013.2
20260509162827 63 6 0.0 0.0 0.00 0.00 0.00 64 1012.8
20260509162320 63 70 0.0 2.0 0.00 0.00 0.00 62 1012.9
20260509161817 64 318 0.0 3.0 0.00 0.00 0.00 62 1012.7
20260509161314 63 26 0.0 0.0 0.00 0.00 0.00 64 1012.8
20260509160809 62 86 0.0 3.0 0.00 0.00 0.00 63 1012.9
20260509160305 61 54 0.0 1.0 0.00 0.00 0.00 65 1013.0
20260509155801 62 58 3.0 4.0 0.00 0.00 0.00 63 1013.0
20260509155257 63 111 0.0 0.0 0.00 0.00 0.00 62 1013.4
20260509154753 62 111 0.0 2.0 0.00 0.00 0.00 63 1013.3
20260509154250 62 46 0.0 0.0 0.00 0.00 0.00 63 1013.1
20260509153747 63 94 0.0 0.0 0.00 0.00 0.00 62 1013.3
20260509153243 62 140 1.0 3.0 0.00 0.00 0.00 64 1013.2
20260509152739 62 166 0.0 2.0 0.00 0.00 0.00 65 1013.2
20260509152236 63 83 5.0 6.0 0.00 0.00 0.00 62 1013.3
20260509151733 64 73 2.0 6.0 0.00 0.00 0.00 64 1013.2
20260509151229 62 111 0.0 2.0 0.00 0.00 0.00 64 1013.2
20260509150728 62 69 2.0 3.0 0.00 0.00 0.00 63 1013.1
20260509150226 62 15 0.0 1.0 0.00 0.00 0.00 65 1013.2
20260509145722 62 72 3.0 4.0 0.00 0.00 0.00 62 1013.3
20260509145217 61 49 2.0 4.0 0.00 0.00 0.00 65 1013.2
20260509144714 61 56 0.0 3.0 0.00 0.00 0.00 64 1013.2
20260509144211 61 61 0.0 0.0 0.00 0.00 0.00 64 1013.3
20260509143708 60 4 0.0 2.0 0.00 0.00 0.00 66 1013.3
20260509143205 59 106 0.0 2.0 0.00 0.00 0.00 68 1013.4
20260509142700 59 91 2.0 2.0 0.00 0.00 0.00 69 1013.4
20260509142157 59 110 0.0 0.0 0.00 0.00 0.00 69 1013.5
20260509141653 58 72 0.0 0.0 0.00 0.00 0.00 69 1013.4
20260509141150 58 72 0.0 0.0 0.00 0.00 0.00 71 1013.4
20260509140647 58 72 0.0 0.0 0.00 0.00 0.00 70 1013.3
20260509140145 58 72 0.0 0.0 0.00 0.00 0.00 70 1013.3
20260509135642 58 72 0.0 0.0 0.00 0.00 0.00 71 1013.2
20260509135140 58 91 0.0 0.0 0.00 0.00 0.00 70 1013.3
20260509134636 58 58 0.0 0.0 0.00 0.00 0.00 70 1013.1
20260509134134 57 58 0.0 0.0 0.00 0.00 0.00 70 1013.0
20260509133631 57 136 0.0 0.0 0.00 0.00 0.00 71 1013.1
20260509133128 57 136 0.0 0.0 0.00 0.00 0.00 71 1013.2
20260509132626 57 136 0.0 0.0 0.00 0.00 0.00 70 1013.1
20260509132124 57 136 0.0 0.0 0.00 0.00 0.00 71 1013.2
20260509131620 57 136 0.0 0.0 0.00 0.00 0.00 72 1013.0
20260509131117 57 136 0.0 0.0 0.00 0.00 0.00 70 1013.3
20260509130613 57 136 0.0 0.0 0.00 0.00 0.00 71 1013.4
20260509130109 57 136 0.0 0.0 0.00 0.00 0.00 71 1013.1
20260509125606 57 136 0.0 0.0 0.00 0.00 0.00 74 1013.3
20260509125102 57 136 0.0 0.0 0.00 0.00 0.00 70 1013.3
20260509124559 57 136 0.0 0.0 0.00 0.00 0.00 73 1013.4
20260509124056 57 136 0.0 0.0 0.00 0.00 0.00 72 1013.1
20260509123554 56 136 0.0 0.0 0.00 0.00 0.00 74 1013.3
20260509123051 56 136 0.0 0.0 0.00 0.00 0.00 74 1013.4
20260509122547 56 136 0.0 0.0 0.00 0.00 0.00 74 1013.3
20260509122044 55 136 0.0 0.0 0.00 0.00 0.00 77 1013.5
20260509121540 55 136 0.0 0.0 0.00 0.00 0.00 76 1013.2
20260509121038 55 136 0.0 0.0 0.00 0.00 0.00 74 1013.5
20260509120536 55 2 0.0 0.0 0.00 0.00 0.00 72 1013.2
20260509120034 55 2 0.0 0.0 0.00 0.00 0.00 74 1013.3
20260509115531 55 2 0.0 0.0 0.00 0.00 0.00 77 1013.1
20260509115029 55 2 0.0 0.0 0.00 0.00 0.00 77 1013.1
20260509114527 55 2 0.0 0.0 0.00 0.00 0.00 75 1013.5
20260509114026 55 2 0.0 0.0 0.00 0.00 0.00 77 1013.4
20260509113523 55 2 0.0 0.0 0.00 0.00 0.00 77 1013.3
20260509113021 55 2 0.0 0.0 0.00 0.00 0.00 76 1013.2
20260509112517 55 2 0.0 0.0 0.00 0.00 0.00 78 1013.2
20260509112014 55 2 0.0 0.0 0.00 0.00 0.00 77 1013.1
20260509111511 54 2 0.0 0.0 0.00 0.00 0.00 75 1013.1
20260509111008 54 2 0.0 0.0 0.00 0.00 0.00 77 1013.1
20260509110505 54 2 0.0 0.0 0.00 0.00 0.00 73 1013.2
20260509110002 54 2 0.0 0.0 0.00 0.00 0.00 79 1012.9
20260509105500 54 2 0.0 0.0 0.00 0.00 0.00 76 1012.9
20260509104957 54 2 0.0 0.0 0.00 0.00 0.00 74 1013.1
20260509104454 54 2 0.0 0.0 0.00 0.00 0.00 76 1012.9
20260509103951 54 2 0.0 0.0 0.00 0.00 0.00 75 1012.9
20260509103449 54 2 0.0 0.0 0.00 0.00 0.00 74 1012.9
20260509102947 54 2 0.0 0.0 0.00 0.00 0.00 75 1013.0
20260509102444 54 2 0.0 0.0 0.00 0.00 0.00 73 1012.7
20260509101940 54 2 0.0 0.0 0.00 0.00 0.00 71 1012.6
20260509101436 54 2 0.0 0.0 0.00 0.00 0.00 71 1012.7
20260509100934 55 2 0.0 0.0 0.00 0.00 0.00 71 1012.4
20260509100431 55 2 0.0 0.0 0.00 0.00 0.00 71 1012.4
20260509095927 55 2 0.0 0.0 0.00 0.00 0.00 69 1012.5
20260509095425 55 2 0.0 0.0 0.00 0.00 0.00 72 1012.2
20260509094922 55 2 0.0 0.0 0.00 0.00 0.00 70 1012.4
20260509094418 55 2 0.0 0.0 0.00 0.00 0.00 68 1012.3
20260509093916 55 2 0.0 0.0 0.00 0.00 0.00 67 1012.3
20260509093413 56 2 0.0 0.0 0.00 0.00 0.00 66 1012.2
20260509092912 56 2 0.0 0.0 0.00 0.00 0.00 66 1012.4
20260509092409 57 2 0.0 0.0 0.00 0.00 0.00 63 1012.3
20260509091907 57 2 0.0 0.0 0.00 0.00 0.00 58 1012.3
20260509091403 58 2 0.0 0.0 0.00 0.00 0.00 59 1012.4
20260509090901 59 2 0.0 0.0 0.00 0.00 0.00 55 1012.3
20260509090358 60 287 0.0 0.0 0.00 0.00 0.00 51 1012.0
20260509085856 60 283 0.0 1.0 0.00 0.00 0.00 49 1012.1
20260509085353 60 305 0.0 1.0 0.00 0.00 0.00 49 1012.2
20260509084849 60 263 1.0 2.0 0.00 0.00 0.00 48 1012.2
20260509084346 60 258 0.0 0.0 0.00 0.00 0.00 49 1012.4
20260509083844 60 252 0.0 0.0 0.00 0.00 0.00 51 1012.1
20260509083340 60 278 0.0 0.0 0.00 0.00 0.00 50 1012.2
20260509082837 60 282 0.0 0.0 0.00 0.00 0.00 51 1012.3
20260509082333 60 275 0.0 0.0 0.00 0.00 0.00 50 1012.4
20260509081831 60 253 0.0 0.0 0.00 0.00 0.00 51 1012.5
20260509081328 60 278 0.0 0.0 0.00 0.00 0.00 50 1012.4
20260509080826 60 325 0.0 0.0 0.00 0.00 0.00 50 1012.4
20260509080323 60 279 0.0 0.0 0.00 0.00 0.00 50 1012.5
20260509075821 60 270 0.0 0.0 0.00 0.00 0.00 51 1012.3
20260509075318 60 242 1.0 3.0 0.00 0.00 0.00 50 1012.5
20260509074815 60 276 0.0 4.0 0.00 0.00 0.00 50 1012.3
20260509074313 60 275 2.0 4.0 0.00 0.00 0.00 51 1012.5
20260509073809 59 303 0.0 0.0 0.00 0.00 0.00 53 1012.4
20260509073305 59 254 0.0 2.0 0.00 0.00 0.00 54 1012.4
20260509072802 58 129 0.0 1.0 0.00 0.00 0.00 56 1012.5
20260509072259 58 129 1.0 3.0 0.00 0.00 0.00 55 1012.4
20260509071755 57 292 0.0 3.0 0.00 0.00 0.00 58 1012.6
20260509071253 54 310 0.0 0.0 0.00 0.00 0.00 69 1012.7
20260509070750 54 310 0.0 0.0 0.00 0.00 0.00 76 1012.7
20260509070246 52 310 0.0 1.0 0.00 0.00 0.00 72 1012.6
20260509065742 52 130 0.0 0.0 0.00 0.00 0.00 82 1012.6
20260509065239 51 129 0.0 0.0 0.00 0.00 0.00 87 1012.8
20260509064735 50 130 0.0 0.0 0.00 0.00 0.00 89 1012.6
20260509064233 50 132 0.0 0.0 0.00 0.00 0.00 88 1012.6
20260509063730 50 132 0.0 0.0 0.00 0.00 0.00 88 1012.9
20260509063226 49 132 0.0 0.0 0.00 0.00 0.00 89 1012.9
20260509062724 49 132 0.0 0.0 0.00 0.00 0.00 89 1012.8
20260509062221 49 132 0.0 0.0 0.00 0.00 0.00 88 1012.8
20260509061718 49 132 0.0 0.0 0.00 0.00 0.00 88 1013.0
20260509061215 49 132 0.0 0.0 0.00 0.00 0.00 88 1013.2
20260509060713 49 132 0.0 0.0 0.00 0.00 0.00 88 1013.1
20260509060209 49 132 0.0 0.0 0.00 0.00 0.00 88 1013.1
20260509055704 49 132 0.0 0.0 0.00 0.00 0.00 87 1013.1
20260509055200 49 132 0.0 0.0 0.00 0.00 0.00 86 1013.2
20260509054657 49 132 0.0 0.0 0.00 0.00 0.00 86 1013.2
20260509054155 49 132 0.0 0.0 0.00 0.00 0.00 87 1013.4
20260509053653 49 132 0.0 0.0 0.00 0.00 0.00 86 1013.3
20260509053149 50 132 0.0 0.0 0.00 0.00 0.00 86 1013.2
20260509052648 50 132 0.0 0.0 0.00 0.00 0.00 86 1013.4
20260509052145 50 132 0.0 0.0 0.00 0.00 0.00 86 1013.3
20260509051643 49 132 0.0 0.0 0.00 0.00 0.00 86 1013.4
20260509051140 49 132 0.0 0.0 0.00 0.00 0.00 86 1013.3
20260509050637 49 132 0.0 0.0 0.00 0.00 0.00 86 1013.1
20260509050133 49 132 0.0 0.0 0.00 0.00 0.00 86 1013.2
20260509045631 49 132 0.0 0.0 0.00 0.00 0.00 86 1013.2
20260509045127 49 132 0.0 0.0 0.00 0.00 0.00 87 1013.1
20260509044625 49 132 0.0 0.0 0.00 0.00 0.00 86 1013.2
20260509044122 49 132 0.0 0.0 0.00 0.00 0.00 86 1013.3
20260509043618 49 138 0.0 0.0 0.00 0.00 0.00 86 1013.3
20260509043114 48 132 0.0 0.0 0.00 0.00 0.00 87 1013.2
20260509042611 48 132 0.0 0.0 0.00 0.00 0.00 88 1013.2
20260509042106 48 132 0.0 0.0 0.00 0.00 0.00 87 1013.2
20260509041603 48 138 0.0 0.0 0.00 0.00 0.00 87 1013.2
20260509041101 48 138 0.0 0.0 0.00 0.00 0.00 87 1013.2
20260509040559 48 132 0.0 0.0 0.00 0.00 0.00 87 1013.6
20260509040055 49 132 0.0 0.0 0.00 0.00 0.00 87 1013.6
20260509035552 49 132 0.0 0.0 0.00 0.00 0.00 86 1013.5
20260509035049 49 132 0.0 0.0 0.00 0.00 0.00 86 1013.5
20260509034547 49 132 0.0 0.0 0.00 0.00 0.00 86 1013.3
20260509034044 49 132 0.0 0.0 0.00 0.00 0.00 85 1013.5
20260509033541 49 132 0.0 0.0 0.00 0.00 0.00 85 1013.7
20260509033038 50 132 0.0 0.0 0.00 0.00 0.00 84 1013.6
20260509032535 50 132 0.0 0.0 0.00 0.00 0.00 83 1013.5
20260509032032 51 130 0.0 0.0 0.00 0.00 0.00 83 1013.5
20260509031530 51 130 0.0 0.0 0.00 0.00 0.00 82 1013.6
20260509031027 51 130 0.0 0.0 0.00 0.00 0.00 81 1013.4
20260509030525 52 130 0.0 0.0 0.00 0.00 0.00 81 1013.6
20260509030022 52 130 0.0 0.0 0.00 0.00 0.00 80 1013.4
20260509025518 52 129 0.0 0.0 0.00 0.00 0.00 79 1013.6
20260509025013 53 129 0.0 0.0 0.00 0.00 0.00 79 1013.7
20260509024509 53 129 0.0 0.0 0.00 0.00 0.00 78 1013.7
20260509024006 53 129 0.0 0.0 0.00 0.00 0.00 78 1013.6
20260509023504 53 129 0.0 0.0 0.00 0.00 0.00 78 1013.6
20260509023000 53 129 0.0 0.0 0.00 0.00 0.00 79 1013.8
20260509022457 53 129 0.0 0.0 0.00 0.00 0.00 78 1013.7
20260509021954 53 129 0.0 0.0 0.00 0.00 0.00 77 1014.0
20260509021451 53 129 0.0 0.0 0.00 0.00 0.00 77 1013.9
20260509020948 53 129 0.0 0.0 0.00 0.00 0.00 76 1013.9
20260509020447 53 129 0.0 0.0 0.00 0.00 0.00 78 1013.8
20260509015943 53 129 0.0 0.0 0.00 0.00 0.00 77 1013.9
20260509015442 53 129 0.0 0.0 0.00 0.00 0.00 77 1013.9
20260509014938 53 129 0.0 0.0 0.00 0.00 0.00 77 1013.7
20260509014436 54 129 0.0 0.0 0.00 0.00 0.00 76 1013.6
20260509013932 54 129 0.0 0.0 0.00 0.00 0.00 74 1013.5
20260509013429 54 129 0.0 0.0 0.00 0.00 0.00 73 1013.5
20260509012924 55 129 0.0 0.0 0.00 0.00 0.00 73 1013.7
20260509012421 55 129 0.0 0.0 0.00 0.00 0.00 73 1013.7
20260509011918 55 130 0.0 0.0 0.00 0.00 0.00 72 1013.6
20260509011415 56 130 0.0 0.0 0.00 0.00 0.00 71 1013.5
20260509010914 56 130 0.0 0.0 0.00 0.00 0.00 70 1013.7
20260509010411 57 130 0.0 0.0 0.00 0.00 0.00 68 1013.2
20260509005907 58 130 0.0 0.0 0.00 0.00 0.00 68 1013.5
20260509005406 59 130 0.0 0.0 0.00 0.00 0.00 66 1013.3
20260509004905 59 130 0.0 0.0 0.00 0.00 0.00 65 1013.4
20260509004402 60 130 0.0 0.0 0.00 0.00 0.00 62 1013.6
20260509003859 61 130 0.0 0.0 0.00 0.00 0.00 61 1013.6
20260509003357 61 130 0.0 0.0 0.00 0.00 0.00 59 1013.6
20260509002854 62 130 0.0 0.0 0.00 0.00 0.00 59 1013.5
20260509002352 63 130 0.0 0.0 0.00 0.00 0.00 58 1013.3
20260509001849 63 128 0.0 0.0 0.00 0.00 0.00 58 1013.3
20260509001345 64 128 0.0 0.0 0.00 0.00 0.00 56 1013.2
20260509000842 64 128 0.0 0.0 0.00 0.00 0.00 48 1013.3
20260509000340 65 128 0.0 0.0 0.00 0.00 0.00 51 1013.1
20260508235836 66 128 0.0 0.0 0.00 0.00 0.00 47 1013.2
20260508235333 66 128 0.0 0.0 0.00 0.00 0.00 44 1013.1
20260508234830 67 128 0.0 0.0 0.00 0.00 0.00 45 1013.1
20260508234327 67 128 0.0 0.0 0.00 0.00 0.00 42 1013.0
20260508233825 68 128 0.0 0.0 0.00 0.00 0.00 36 1013.1
20260508233324 68 128 0.0 0.0 0.00 0.00 0.00 40 1013.0
20260508232821 68 128 0.0 0.0 0.00 0.00 0.00 37 1013.2
20260508232317 68 129 0.0 0.0 0.00 0.00 0.00 36 1012.9
20260508231816 68 129 0.0 0.0 0.00 0.00 0.00 39 1012.9
20260508231311 68 129 0.0 0.0 0.00 0.00 0.00 46 1012.9
20260508230808 68 129 0.0 0.0 0.00 0.00 0.00 40 1013.1
20260508230305 68 129 0.0 0.0 0.00 0.00 0.00 39 1013.0
20260508225803 68 235 0.0 0.0 0.00 0.00 0.00 38 1012.8
20260508225259 68 235 0.0 0.0 0.00 0.00 0.00 41 1012.8
20260508224757 69 235 0.0 0.0 0.00 0.00 0.00 37 1012.8
20260508224254 69 235 0.0 0.0 0.00 0.00 0.00 36 1013.0
20260508223752 70 235 0.0 0.0 0.00 0.00 0.00 36 1012.9
20260508223249 71 237 0.0 0.0 0.00 0.00 0.00 34 1013.0
20260508222746 70 47 0.0 0.0 0.00 0.00 0.00 39 1013.0
20260508222243 69 352 0.0 0.0 0.00 0.00 0.00 36 1012.9
20260508221740 69 258 0.0 0.0 0.00 0.00 0.00 35 1013.1
20260508221236 70 344 0.0 0.0 0.00 0.00 0.00 36 1012.9
20260508220731 71 319 0.0 0.0 0.00 0.00 0.00 36 1013.0
20260508220229 72 337 0.0 4.0 0.00 0.00 0.00 32 1012.9
20260508215725 72 289 0.0 0.0 0.00 0.00 0.00 32 1013.2
20260508215221 72 329 0.0 2.0 0.00 0.00 0.00 32 1013.1
20260508214719 71 304 0.0 1.0 0.00 0.00 0.00 31 1013.1
20260508214216 72 265 4.0 6.0 0.00 0.00 0.00 31 1013.0
20260508213712 73 19 2.0 3.0 0.00 0.00 0.00 30 1013.1
20260508213209 71 105 0.0 1.0 0.00 0.00 0.00 34 1013.1
20260508212705 69 294 0.0 2.0 0.00 0.00 0.00 33 1013.1
20260508212202 69 1 0.0 2.0 0.00 0.00 0.00 33 1013.1
20260508211657 69 252 3.0 3.0 0.00 0.00 0.00 33 1013.1
20260508211153 69 4 3.0 6.0 0.00 0.00 0.00 33 1013.3
20260508210651 70 278 0.0 2.0 0.00 0.00 0.00 33 1013.1
20260508210148 71 294 3.0 4.0 0.00 0.00 0.00 31 1013.2
20260508205645 73 12 2.0 4.0 0.00 0.00 0.00 30 1013.1
20260508205141 71 323 0.0 2.0 0.00 0.00 0.00 30 1013.2
20260508204637 73 17 0.0 4.0 0.00 0.00 0.00 31 1013.2
20260508204134 74 244 1.0 2.0 0.00 0.00 0.00 32 1013.3
20260508203630 72 319 0.0 4.0 0.00 0.00 0.00 32 1013.3
20260508203126 72 274 5.0 7.0 0.00 0.00 0.00 29 1013.4
20260508202622 71 26 4.0 7.0 0.00 0.00 0.00 30 1013.4
20260508202120 71 269 3.0 6.0 0.00 0.00 0.00 30 1013.5
20260508201617 73 285 0.0 6.0 0.00 0.00 0.00 30 1013.3
20260508201113 71 259 5.0 9.0 0.00 0.00 0.00 30 1013.4
20260508200610 72 264 2.0 6.0 0.00 0.00 0.00 30 1013.6
20260508200106 71 283 3.0 6.0 0.00 0.00 0.00 28 1013.4
20260508195603 70 332 4.0 4.0 0.00 0.00 0.00 30 1013.5
20260508195059 70 313 2.0 3.0 0.00 0.00 0.00 30 1013.5
20260508194556 71 297 3.0 3.0 0.00 0.00 0.00 29 1013.6
20260508194053 72 6 2.0 6.0 0.00 0.00 0.00 29 1013.6
20260508193549 71 297 4.0 6.0 0.00 0.00 0.00 28 1013.9
20260508193046 71 330 1.0 13.0 0.00 0.00 0.00 29 1013.7
20260508192543 73 195 7.0 10.0 0.00 0.00 0.00 26 1013.6
20260508192041 73 307 3.0 4.0 0.00 0.00 0.00 28 1013.8
20260508191537 72 277 1.0 4.0 0.00 0.00 0.00 28 1014.1
20260508191034 70 230 2.0 3.0 0.00 0.00 0.00 32 1014.1
20260508190531 70 357 4.0 9.0 0.00 0.00 0.00 29 1014.1
20260508190027 72 287 2.0 6.0 0.00 0.00 0.00 31 1014.2
20260508185525 72 255 3.0 8.0 0.00 0.00 0.00 29 1014.3
20260508185022 73 164 7.0 9.0 0.00 0.00 0.00 26 1014.5
20260508184520 72 202 6.0 13.0 0.00 0.00 0.00 27 1014.7
20260508184016 72 239 5.0 8.0 0.00 0.00 0.00 29 1014.4
20260508183513 71 248 3.0 7.0 0.00 0.00 0.00 29 1014.6
20260508183009 71 2 3.0 4.0 0.00 0.00 0.00 29 1014.6
20260508182505 71 331 2.0 8.0 0.00 0.00 0.00 29 1014.5
20260508182001 70 130 5.0 10.0 0.00 0.00 0.00 28 1014.7
20260508181457 70 192 4.0 8.0 0.00 0.00 0.00 31 1014.9
20260508180955 68 7 3.0 9.0 0.00 0.00 0.00 30 1014.7
20260508180452 72 18 3.0 11.0 0.00 0.00 0.00 28 1014.9
20260508175948 70 181 1.0 7.0 0.00 0.00 0.00 29 1014.9
20260508175444 67 2 4.0 6.0 0.00 0.00 0.00 29 1015.4
20260508174942 68 300 0.0 6.0 0.00 0.00 0.00 32 1015.1
20260508174439 70 276 1.0 8.0 0.00 0.00 0.00 30 1015.1
20260508173936 69 214 6.0 11.0 0.00 0.00 0.00 31 1015.4